This demonstration page uses our WeatherBlox Daily Observations layout. Learn more.

Left ArrowRight Arrow

44.31136, -96.79839

Hourly Observations for June 28, 2019

Temp ( °F °C ) Dew Point ( °F °C ) Humidity (%) Winds ( mph kmh ) Pressure ( in mb ) Visibility ( mi km ) Precip ( " mm )
12:56 am 00:56 Mostly Cloudy 71 21.7 67 19.4 87 87 ENE 6 9 30.01 1016 10 16 0.00 0.00
1:56 am 01:56 Clear 70 21.1 67 19.4 90 90 E 8 13 30.01 1016 10 16 0.00 0.00
2:56 am 02:56 Mostly Clear 70 21.1 66 18.9 87 87 ENE 14 22 30.01 1016 10 16 0.00 0.00
3:56 am 03:56 Partly Cloudy 69 20.6 67 19.4 93 93 E 12 19 30.00 1016 10 16 0.00 0.00
4:56 am 04:56 Clear 69 20.6 67 19.4 93 93 E 9 15 29.99 1016 10 16 0.00 0.00
5:56 am 05:56 Sunny 68 20 67 19.4 96 96 ENE 10 17 30.01 1016 8 13 0.00 0.00
6:17 am 06:17 Partly Cloudy 68 20 66 19 94 94 ENE 8 13 29.96 1015 7 11 0.00 0.00
6:27 am 06:27 Mostly Cloudy with Mist and Fog 68 20 66 19 94 94 ENE 10 17 29.96 1015 6 10 0.00 0.00
6:56 am 06:56 Cloudy with Mist and Fog 68 20 67 19.4 96 96 E 8 13 30.02 1017 4 6 0.00 0.00
7:31 am 07:31 Cloudy with Mist and Fog 68 20 66 19 94 94 E 12 19 29.97 1015 3 5 0.00 0.00
7:56 am 07:56 Cloudy with Mist and Fog 68 20 68 20 100 100 E 14 22 30.04 1017 4 6 0.00 0.00
8:15 am 08:15 Cloudy with Mist and Fog 70 21 68 20 94 94 E 13 20 29.97 1015 6 10 0.00 0.00
8:31 am 08:31 Cloudy 70 21 68 20 94 94 E 14 22 29.97 1015 9 14 0.00 0.00
8:56 am 08:56 Cloudy 71 21.7 68 20 90 90 undefined N/A 30.04 1017 10 16 0.00 0.00
9:34 am 09:34 Cloudy 72 22 70 21 94 94 ESE 10 17 29.98 1015 10 16 0.00 0.00
9:56 am 09:56 Cloudy 74 23.3 70 21.1 88 88 ESE 10 17 30.04 1017 10 16 0.00 0.00
10:48 am 10:48 Mostly Sunny 77 25 72 22 83 83 E 12 19 29.97 1015 10 16 0.00 0.00
10:56 am 10:56 Sunny 78 25.6 71 21.7 79 79 E 13 20 30.06 1018 10 16 0.00 0.00
11:46 am 11:46 Mostly Cloudy 81 27 73 23 79 79 E 15 24 29.97 1015 10 16 0.00 0.00
11:56 am 11:56 Mostly Cloudy 81 27.2 72 22.2 74 74 ENE 16 26 30.07 1018 10 16 0.00 0.00
12:14 pm 12:14 Partly Cloudy 81 27 72 22 74 74 E 15 24 29.97 1015 10 16 0.00 0.00
12:56 pm 12:56 Cloudy 81 27.2 72 22.2 74 74 E 14 22 30.09 1019 10 16 0.00 0.00
1:44 pm 13:44 Mostly Cloudy 82 28 72 22 70 70 ENE 14 22 29.99 1016 10 16 0.00 0.00
1:56 pm 13:56 Cloudy 83 28.3 72 22.2 70 70 E 15 24 30.09 1019 10 16 0.00 0.00
2:39 pm 14:39 Mostly Cloudy 82 28 72 22 70 70 E 14 22 29.97 1015 10 16 0.00 0.00
2:56 pm 14:56 Mostly Cloudy 84 28.9 73 22.8 70 70 ESE 13 20 30.08 1019 9 14 0.00 0.00
3:08 pm 15:08 Cloudy 82 28 73 23 74 74 E 9 15 29.98 1015 10 16 0.00 0.00
3:45 pm 15:45 Partly Cloudy 84 29 73 23 70 70 SE 16 26 29.96 1014 10 16 0.00 0.00
3:56 pm 15:56 Partly Cloudy 83 28.3 73 22.8 72 72 SE 17 28 30.06 1018 10 16 0.00 0.00
4:56 pm 16:56 Sunny 83 28.3 74 23.3 74 74 SE 20 31 30.02 1017 10 16 0.00 0.00
5:56 pm 17:56 Sunny 84 28.9 75 23.9 74 74 SE 12 19 30.02 1017 10 16 0.00 0.00
6:56 pm 18:56 Partly Cloudy 84 28.9 76 24.4 77 77 SE 7 11 30.04 1017 10 16 0.00 0.00
7:06 pm 19:06 Mostly Cloudy 84 29 75 24 74 74 ESE 8 13 29.94 1014 9 14 0.00 0.00
7:36 pm 19:36 Partly Cloudy 82 28 75 24 79 79 ESE 6 9 29.95 1014 9 14 0.00 0.00
7:56 pm 19:56 Mostly Sunny 83 28.3 75 23.9 77 77 E 5 7 30.05 1018 10 16 0.00 0.00
8:56 pm 20:56 Partly Cloudy 82 27.8 75 23.9 79 79 E 9 15 30.06 1018 10 16 0.00 0.00
9:40 pm 21:40 Mostly Cloudy 81 27 75 24 84 84 E 8 13 29.98 1015 10 16 0.00 0.00
9:56 pm 21:56 Cloudy 80 26.7 75 23.9 85 85 E 8 13 30.08 1019 10 16 0.00 0.00
10:14 pm 22:14 Partly Cloudy 79 26 73 23 84 84 E 10 17 29.99 1016 10 16 0.00 0.00
10:56 pm 22:56 Clear 78 25.6 74 23.3 87 87 ESE 10 17 30.08 1019 10 16 0.00 0.00
11:56 pm 23:56 Clear 76 24.4 74 23.3 94 94 E 9 15 30.08 1019 10 16 0.00 0.00

Powered by AerisWeather